TimeMST,TemperatureF,Dew PointF,Humidity,Sea Level PressureIn,VisibilityMPH,Wind Direction,Wind SpeedMPH,Gust SpeedMPH,PrecipitationIn,Events,Conditions,WindDirDegrees,DateUTC
12:03 AM,10.0,6.1,84,30.54,2.0,Calm,Calm,-,N/A,,Clear,0,2014-01-21 07:03:00
12:10 AM,10.0,6.1,84,30.54,3.0,Calm,Calm,-,N/A,,Clear,0,2014-01-21 07:10:00
12:17 AM,10.0,6.1,84,30.54,2.5,Calm,Calm,-,N/A,,Clear,0,2014-01-21 07:17:00
12:35 AM,8.1,3.9,83,30.53,3.0,Calm,Calm,-,N/A,,Clear,0,2014-01-21 07:35:00
12:51 AM,10.0,7.0,87,30.69,3.0,Calm,Calm,-,N/A,,Clear,0,2014-01-21 07:51:00
1:51 AM,1.9,-0.9,88,30.70,3.0,Calm,Calm,-,N/A,,Clear,0,2014-01-21 08:51:00
1:56 AM,-0.0,-2.9,88,30.52,3.0,NW,3.5,-,N/A,,Scattered Clouds,310,2014-01-21 08:56:00
2:04 AM,-0.9,-4.0,87,30.53,2.5,North,3.5,-,N/A,,Mostly Cloudy,350,2014-01-21 09:04:00
2:07 AM,-0.0,-4.0,83,30.53,0.8,North,3.5,-,N/A,,Mist,350,2014-01-21 09:07:00
2:34 AM,5.0,1.9,87,30.54,2.0,NE,5.8,-,N/A,,Overcast,50,2014-01-21 09:34:00
2:39 AM,5.0,1.9,87,30.54,4.0,NE,3.5,-,N/A,,Overcast,50,2014-01-21 09:39:00
2:51 AM,3.0,-0.9,84,30.70,4.0,Calm,Calm,-,N/A,,Mostly Cloudy,0,2014-01-21 09:51:00
3:00 AM,8.1,3.9,83,30.53,1.5,Calm,Calm,-,N/A,,Overcast,0,2014-01-21 10:00:00
3:11 AM,3.9,-0.0,84,30.53,3.0,SW,4.6,-,N/A,,Mostly Cloudy,230,2014-01-21 10:11:00
3:21 AM,-0.0,-2.9,88,30.54,1.0,Calm,Calm,-,N/A,,Mist,0,2014-01-21 10:21:00
3:26 AM,1.0,-2.9,83,30.53,0.2,Calm,Calm,-,N/A,Fog,Light Freezing Fog,0,2014-01-21 10:26:00
3:51 AM,1.9,-2.9,80,30.70,0.2,West,4.6,-,N/A,,Haze,280,2014-01-21 10:51:00
4:51 AM,6.1,1.0,80,30.67,0.2,Calm,Calm,-,N/A,,Haze,0,2014-01-21 11:51:00
5:27 AM,6.1,-0.0,76,30.51,1.5,Calm,Calm,-,N/A,,Haze,0,2014-01-21 12:27:00
5:36 AM,3.9,-2.9,73,30.51,0.2,West,4.6,-,N/A,,Haze,260,2014-01-21 12:36:00
5:51 AM,1.9,-2.0,83,30.71,0.2,NNW,4.6,-,N/A,Fog,Light Freezing Fog,330,2014-01-21 12:51:00
6:51 AM,7.0,1.9,80,30.71,0.2,Calm,Calm,-,N/A,,Haze,0,2014-01-21 13:51:00
7:51 AM,8.1,3.0,80,30.71,0.2,Calm,Calm,-,N/A,,Haze,0,2014-01-21 14:51:00
8:51 AM,10.0,3.9,76,30.71,0.2,Calm,Calm,-,N/A,,Haze,0,2014-01-21 15:51:00
9:51 AM,9.0,5.0,84,30.72,0.2,Calm,Calm,-,N/A,Fog,Light Freezing Fog,0,2014-01-21 16:51:00
10:51 AM,16.0,9.0,74,30.71,0.2,Calm,Calm,-,0.00,,Haze,0,2014-01-21 17:51:00
11:02 AM,17.1,9.0,71,30.52,1.5,Calm,Calm,-,N/A,,Haze,0,2014-01-21 18:02:00
11:07 AM,18.0,10.9,74,30.51,2.0,Calm,Calm,-,N/A,,Haze,0,2014-01-21 18:07:00
11:48 AM,19.4,14.0,80,30.49,3.0,Calm,Calm,-,N/A,,Haze,0,2014-01-21 18:48:00
11:51 AM,19.0,14.0,81,30.66,3.0,Calm,Calm,-,N/A,,Haze,0,2014-01-21 18:51:00
12:51 PM,21.0,14.0,74,30.61,5.0,NNW,3.5,-,N/A,,Haze,330,2014-01-21 19:51:00
1:51 PM,23.0,15.1,72,30.60,5.0,Calm,Calm,-,N/A,,Haze,0,2014-01-21 20:51:00
2:51 PM,23.0,16.0,74,30.57,6.0,Calm,Calm,-,N/A,,Haze,0,2014-01-21 21:51:00
3:51 PM,23.0,16.0,74,30.56,6.0,Calm,Calm,-,N/A,,Haze,0,2014-01-21 22:51:00
4:51 PM,23.0,15.1,72,30.53,6.0,Calm,Calm,-,N/A,,Haze,0,2014-01-21 23:51:00
5:51 PM,21.0,14.0,74,30.55,7.0,NNW,4.6,-,N/A,,Clear,330,2014-01-22 00:51:00
6:51 PM,10.0,6.1,84,30.57,6.0,West,3.5,-,N/A,,Clear,280,2014-01-22 01:51:00
7:51 PM,15.1,10.0,80,30.54,6.0,SSW,3.5,-,N/A,,Haze,200,2014-01-22 02:51:00
8:51 PM,12.9,9.0,84,30.53,4.0,Calm,Calm,-,N/A,,Clear,0,2014-01-22 03:51:00
9:51 PM,10.0,5.0,80,30.53,4.0,Calm,Calm,-,N/A,,Haze,0,2014-01-22 04:51:00
10:51 PM,14.0,9.0,80,30.50,5.0,Calm,Calm,-,N/A,,Haze,0,2014-01-22 05:51:00
11:51 PM,7.0,3.0,84,30.51,5.0,Calm,Calm,-,N/A,,Clear,0,2014-01-22 06:51:00